FW6834 Weather Reports


Display with metric or nautical units.
time (UTC)temp
F
wind
direction
speed
MPH
gust
MPH
rain 1hr
in
rain 24hr
in
rain mn
in
humidity
%
barometer
mb
20260831061602 88 174 5.0 10.0 0.00 0.00 0.00 39 1053.8
20260831054602 88 167 7.0 8.0 0.00 0.00 0.00 39 1053.8
20260831053102 88 213 5.0 14.0 0.00 0.00 0.00 39 1053.5
20260831051602 88 155 9.0 9.0 0.00 0.00 0.00 40 1053.5
20260831044602 89 178 7.0 12.0 0.00 0.00 0.00 40 1053.5
20260831043102 89 184 7.0 10.0 0.00 0.00 0.00 40 1053.5
20260831041601 89 198 7.0 9.0 0.00 0.00 0.00 39 1053.5
20260831035101 90 191 3.0 9.0 0.00 0.00 0.00 38 1053.5
20260831033602 91 173 8.0 10.0 0.00 0.00 0.00 37 1053.5
20260831030602 92 147 7.0 10.0 0.00 0.00 0.00 37 1053.2
20260831025102 92 177 9.0 11.0 0.00 0.00 0.00 37 1053.2
20260831024102 92 195 5.0 10.0 0.00 0.00 0.00 36 1052.8
20260831022602 93 227 7.0 12.0 0.00 0.00 0.00 35 1052.5
20260831021102 93 165 13.0 13.0 0.00 0.00 0.00 34 1052.2
20260831015602 94 170 5.0 9.0 0.00 0.00 0.00 34 1052.2
20260831014102 95 124 4.0 9.0 0.00 0.00 0.00 33 1051.8
20260831012602 95 145 4.0 8.0 0.00 0.00 0.00 32 1051.8
20260831011202 96 165 3.0 8.0 0.00 0.00 0.00 31 1051.5
20260831004602 98 178 10.0 13.0 0.00 0.00 0.00 29 1051.5
20260831001603 100 218 11.0 11.0 0.00 0.00 0.00 28 1051.5
20260831000602 100 168 8.0 9.0 0.00 0.00 0.00 27 1051.5
20260830235102 101 182 6.0 14.0 0.00 0.00 0.00 27 1051.5
20260830233603 101 186 6.0 11.0 0.00 0.00 0.00 27 1051.5
20260830232602 102 176 7.0 13.0 0.00 0.00 0.00 26 1051.5
20260830231102 103 127 10.0 11.0 0.00 0.00 0.00 26 1051.5
20260830224102 103 194 3.0 10.0 0.00 0.00 0.00 25 1051.5
20260830222604 103 147 7.0 14.0 0.00 0.00 0.00 25 1051.5
20260830221102 104 194 11.0 11.0 0.00 0.00 0.00 25 1051.5
20260830215602 104 184 6.0 11.0 0.00 0.00 0.00 25 1051.5
20260830214102 104 126 10.0 13.0 0.00 0.00 0.00 25 1051.8
20260830212602 104 187 10.0 13.0 0.00 0.00 0.00 25 1051.8
20260830211102 104 223 10.0 11.0 0.00 0.00 0.00 25 1052.2
20260830205602 105 166 9.0 13.0 0.00 0.00 0.00 25 1052.5
20260830202601 106 207 7.0 11.0 0.00 0.00 0.00 25 1052.8
20260830201102 105 220 6.0 11.0 0.00 0.00 0.00 26 1052.8
20260830194602 104 289 7.0 9.0 0.00 0.00 0.00 26 1053.2
20260830193102 104 206 8.0 14.0 0.00 0.00 0.00 26 1053.2